Location: Appleton
(44.2618°N, 88.4157°W)
Time: 11:23:56
(UTC+00:00)

S-56A Canister/Altair - Pass Details

Date: 28 February 2021
Orbit: 632 x 2500 km, 38.9° (Epoch: 18 April)

Event Time Altitude Azimuth Distance (km) Brightness Sun altitude
Rises 23:53:57 0° 268° (W) 6,169 14.9 -3.4°
Reaches altitude 10° 23:58:02 10° 267° (W) 5,163 13.7 -4.1°
Maximum altitude 00:12:52 69° 189° (S) 2,345 10.0 -6.7°
Drops below altitude 10° 00:24:13 10° 109° (ESE) 4,057 10.6 -8.8°
Enters shadow 00:25:02 - 108° (ESE) 4,271 10.7 -8.9°
Sets 00:27:02 0° 107° (ESE) 4,824 - -9.3°
